STARLINK-5330 (55282 NORAD) Tracking and Keplerian Element Data

This shows tracking and keplerian element data for the satellite.

Feedback or suggestion? Click here.




ElementValue
Catalog55282
NameSTARLINK-5330
Epoch Orbit1705
Epoch Day127.0670904
Epoch Year2023
RAAN140.5232
Inclination69.998
Eccentricity0.0003492
Argument of Perigee270.7334
Mean Anonmoly89.3425
Mean Motion14.98333567
Decay Rate9.14E-06
L11 55282U 23010P 23127.06709040 .00000914 00000+0 84342-4 0 9997
L22 55282 69.9980 140.5232 0003492 270.7334 89.3425 14.98333567 17059



Live tracking and technical data element details for STARLINK-5330 (NORAD 55282). STARLINK-5330 can be tracked NOW for your location showing map with azimuth and elevation plus other details from your city location.







IsCatalogInMostPopularTable: catalog: 55282, numindb: 1
Update: records affected: 1



GetName: 55282 STARLINK-5330

Hit Count: updated at: Mon, 05 Jun 2023 20:45:34 GMT